Location: Unspecified
(0.0000°N, 0.0000°E)
Time: 05:36:43
(UTC+00:00)

Envisat - Pass Details

Date: 06 August 2020
Orbit: 764 x 766 km, 98.1° (Epoch: 13 August)

Event Time Altitude Azimuth Distance (km) Brightness Sun altitude
Rises 04:40:18 0° 49° (NE) 3,216 7.4 -20.5°
Reaches altitude 10° 04:44:00 10° 77° (ENE) 2,295 6.7 -19.6°
Maximum altitude 04:46:08 13° 103° (ESE) 2,114 6.1 -19.1°
Drops below altitude 10° 04:48:16 10° 128° (SE) 2,299 5.9 -18.6°
Sets 04:51:57 0° 156° (SSE) 3,229 6.3 -17.7°
